Regional Weather Roundup
Issued by NWS

Home | Current Version | Previous Version | Text Only | Print | Product List | Glossary On
Versions: 1 2 3 4 5 6 7 8 9 10 11 12 13 14 15 16 17 18 19 20 21 22 23 24 25 26 27 28 29 30 31 32 33 34 35 36 37 38 39 40 41 42 43 44 45 46 47 48 49 50
000
ASCA44 KEWX 200110
RWRMX

LATIN AMERICA AND CARIBBEAN REGIONAL WEATHER ROUNDUP
NATIONAL WEATHER SERVICE AUSTIN/SAN ANTONIO TX
700 PM CST SUN NOV 19 2017

NOTE: "FAIR" INDICATED FEW OR NO CLOUDS BELOW 12,000 FEET WITH NO
SIGNIFICANT WEATHER AND/OR OBSTRUCTIONS TO VISIBILITY.

BAJA CALIFORNIA

CITY           SKY/WX    TMP DP  RH WIND       PRES   REMARKS
LORETO         CLEAR     77  64  65 N14       29.85R
LA PAZ         PTCLDY    77  59  53 N6        29.88R
MEXICALI       PTCLDY    70  18  13 NW6       29.96S
S.J. DEL CABO  PTCLDY    79  64  61 SE9       29.88R
TIJUANA        PTCLDY    64  46  52 W7        29.97R

NORTHWESTERN MEXICO

CITY           SKY/WX    TMP DP  RH WIND       PRES   REMARKS
CULIACAN       CLEAR     79  66  65 NW6       29.82R
DURANGO        MOCLDY    66  34  30 S7        30.14R
GUAYMAS        CLEAR     79  57  47 S6        29.79R
HERMOSILLO     CLEAR     79  37  22 W9        29.86R
CD. JUAREZ     PTCLDY    57  14  18 CALM      30.13R
LOS MOCHIS     CLEAR     75  59  57 NW14      29.85
OBREGON        CLEAR     75  52  43 W6        29.80R

NORTHEASTERN MEXICO

CITY           SKY/WX    TMP DP  RH WIND       PRES   REMARKS
CHIHUAHUA      CLEAR     55  30  38 E6        30.11R
MATAMOROS      PTCLDY    63  48  59 N9        30.22
MONCLOVA       PTCLDY    57  28  33 N8        30.18R
MONTERREY      PTCLDY    54  36  50 E5        30.22
NUEVO LAREDO   PTCLDY    59  37  44 CALM      30.22S
PIEDRAS NEGRAS MOCLDY    59  43  55 CALM      30.25S
REYNOSA        CLEAR     59  39  47 NE5       30.23R
SALTILLO       CLEAR     50  37  62 N9        30.26S WCI  46
TORREON        PTCLDY    68  37  32 E7        30.08R
CD. VICTORIA   MOCLDY    63  37  39 MISG      30.23R

WESTERN MEXICO

CITY           SKY/WX    TMP DP  RH WIND       PRES   REMARKS
AGUASCALIENTES CLEAR     66  36  32 W5        30.19R
COLIMA         PTCLDY    75  72  88 W9        29.96R
DEL BAJIO      PTCLDY    66  46  48 NE6       30.24R
GUADALAJARA    CLEAR     72  39  30 S5        30.11R
MANZANILLO     CLEAR     82  77  83 CALM      29.82R HX  91
MAZATLAN       MOCLDY    79  68  69 NW7       29.84R
P. VALLARTA    PTCLDY    81  75  83 SW6       29.84R
URUAPAN        CLEAR     70  59  68 CALM      30.13R
ZACATECAS      PTCLDY    63  34  34 SE12      30.21R

CENTRAL MEXICO

CITY           SKY/WX    TMP DP  RH WIND       PRES   REMARKS
CUERNAVACA       N/A    N/A N/A N/A MISG        N/A
MEXICO CITY    PTCLDY    59  45  58 N15       30.30R
MORELIA        CLEAR     63  43  48 N7        30.17R
POZA RICA      MOCLDY    63  57  82 W8        30.25S
PUEBLA         MOCLDY    57  43  58 N7          N/A
QUERETARO      CLEAR     59  46  63 E14       30.30R
S. LUIS POTOSI CLEAR     54  41  62 E5        30.25R
TAMPICO        CLOUDY    66  43  42 N12       30.21R
TOLUCA         PTCLDY    54  39  58 SE9       30.33R

SOUTHERN MEXICO

CITY           SKY/WX    TMP DP  RH WIND       PRES   REMARKS
ACAPULCO       PTCLDY    82  75  78 W3        29.83R
B. DE HUATULCO PTCLDY   N/A N/A N/A CALM      29.88
OAXACA         PTCLDY    63  48  59 NW6       30.22R
P. ESCONDIDO   PTCLDY    79  73  83 CALM      29.95R
VERACRUZ       PTCLDY    72  61  68 N17G29    30.06R
ZIHUATANEJO    PTCLDY    84  77  79 CALM      29.84  HX  94

YUCATAN PENINSULA

CITY           SKY/WX    TMP DP  RH WIND       PRES   REMARKS
CAMPECHE       PTCLDY    79  72  78 N12G23    29.95R
CANCUN         PTCLDY    73  72  94 NW3       29.97R
CHETUMAL       MOCLDY    73  73 100 CALM      29.95R
CD. DEL CARMEN CLEAR    N/A N/A N/A N9        30.00R
COZUMEL        PTCLDY    79  72  78 N12       29.94R
MERIDA         PTCLDY    75  66  73 N5        29.99R
MINATITLAN     MOCLDY    75  72  88 NW12      30.00
TAPACHULA      PTCLDY    77  73  88 CALM      29.83R
TUX. GUTIERREZ CLEAR     73  59  60 NW21      29.99R
VILLAHERMOSA   PTCLDY    72  72 100 CALM      30.02S

CENTRAL AMERICA

CITY           SKY/WX    TMP DP  RH WIND       PRES   REMARKS
BELIZE CITY    RAIN      72  72 100 S3        29.96R
MANAGUA        PTCLDY    79  72  78 S7        29.80R

CARIBBEAN

CITY           SKY/WX    TMP DP  RH WIND       PRES   REMARKS
ARUBA          PTCLDY    81  77  89 VRB1      29.80R
CURACAO        PTCLDY    81  77  89 S6        29.80S
KINGSTON       PTCLDY    82  77  83 N10       29.80R HX  91
NASSAU         PTCLDY    77  72  83 NW3       29.95R
SAN JUAN       PTCLDY    75  75 100 SE5       29.85R
SANTO DOMINGO  MOCLDY    75  73  94 CALM      29.83R
ST. KITTS      PTCLDY    79  75  89 VRB2      29.89S
ST. THOMAS       N/A    N/A N/A N/A MISG      29.89

$$





USA.gov is the U.S. government's official web portal to all federal, state and local government web resources and services.